Location: Zagreb
(45.8000°N, 16.0000°E)
Time: 04:11:16
(UTC+02:00)

Transit 4A - Visible Passes

Search period start: 08 August 2022 00:00
Search period end: 18 August 2022 00:00
Orbit: 866 x 978 km, 66.8° (Epoch: 07 August)

Date Brightness Start Highest point End Pass type
(mag) Time Alt. Az. Time Alt. Az. Time Alt. Az.
08 Aug 10.1 22:00:00 10° WNW 22:03:49 18° WSW 22:07:35 10° SW visible
09 Aug 10.4 22:10:59 10° W 22:12:41 11° W 22:14:23 10° WSW visible
11 Aug 9.4 20:40:25 10° NW 20:45:43 34° WSW 20:50:54 10° S visible
12 Aug 10.0 20:50:11 10° WNW 20:54:43 23° WSW 20:59:11 10° SSW visible
13 Aug 10.3 21:00:23 10° WNW 21:03:39 15° WSW 21:06:54 10° SW visible
